Terug naar catalogus

SBS 3

ActiefCommunicatieGEO
NORAD 13651·PAYLOAD·🇺🇸 United States

Gelanceerd Nov 11, 1982 vanaf Cape Canaveral Space Force Station

Loading…

TLE

VersSource: Space-Track

Epoch: Sep 14, 2026, 00:00 UTC

1 13651U 82110B   26257.00042975 -.00000240  00000-0  00000-0 0  9994
2 13651  12.4117 333.7646 0004487 157.7382 198.7762  0.99937983 47426

Volg SBS 3 in realtime met AllMySat

Download on the App Store